Park Rapids, MN

8:17 PM CST on February 11, 2016 (GMT -0600)
Park Rapids Municipal

Weather History for KPKD - June, 2014

Change the Weather History Date:

Saturday, June 7, 2014

  Actual Average Record
Temperature  
Mean Temperature 60 °F -  
Max Temperature 70 °F 75 °F 96 °F (1950)
Min Temperature 52 °F 49 °F 33 °F (1998)
Degree Days  
Heating Degree Days 4    
Growing Degree Days 10 (Base 50)    
Moisture  
Dew Point 42 °F    
Average Humidity 60    
Maximum Humidity 97    
Minimum Humidity 27    
Precipitation  
Precipitation 0.13 in - - ()
Sea Level Pressure  
Sea Level Pressure 30.07 in    
Wind  
Wind Speed 6 mph (NNW)    
Max Wind Speed 12 mph    
Max Gust Speed 20 mph    
Visibility 10 miles    
Events Rain    
Averages and records for this station are not official NWS values.
T = Trace of Precipitation, MM = Missing Value Source: NWS Daily Summary

Daily Weather History Graph

Daily Weather History Graph

Search for Another Location

Airport or City:

Trip Planner

Search our weather history database for the weather conditions in past years. The results will help you decide how hot, cold, wet, or windy it might be!

Date:

Astronomy

Jun. 07, 2014 Rise Set
Actual Time 5:26 AM CDT 9:12 PM CDT
Civil Twilight 4:47 AM CDT 9:51 PM CDT
Nautical Twilight 3:54 AM CDT 10:44 PM CDT
Astronomical Twilight 2:39 AM CDT 11:59 PM CDT
Moon 3:10 PM CDT (6/7) 2:10 AM CDT (6/7)
Length of Visible Light 17h 03m
Length of Day
15h 45m
Waxing Gibbous, 68% of the Moon is Illuminated
Jun 7
Waxing Gibbous
Jun 12
Full
Jun 19
Last Quarter
Jun 27
New
Jul 5
First Quarter

Hourly Weather History & Observations

Time (CDT) Temp. Dew Point Humidity Pressure Visibility Wind Dir Wind Speed Gust Speed Precip Events Conditions
12:53 AM 53.1 °F 48.9 °F 86% 30.08 in 8.0 mi WNW 6.9 mph - 0.03 in Rain Light Rain
1:53 AM 52.0 °F 50.0 °F 93% 30.05 in 10.0 mi NW 8.1 mph - 0.01 in   Overcast
2:53 AM 53.1 °F 51.1 °F 93% 30.05 in 10.0 mi NNW 3.5 mph - 0.01 in   Overcast
3:53 AM 52.0 °F 50.0 °F 93% 30.07 in 9.0 mi WNW 3.5 mph - 0.02 in Rain Light Rain
4:53 AM 52.0 °F 50.0 °F 93% 30.07 in 10.0 mi Calm Calm - 0.06 in Rain Light Rain
5:53 AM 52.0 °F 51.1 °F 97% 30.08 in 10.0 mi NNW 3.5 mph - 0.00 in   Overcast
6:53 AM 53.6 °F 51.8 °F 94% 30.07 in 10.0 mi NNW 3.5 mph - N/A   Overcast
7:53 AM 55.4 °F 48.2 °F 77% 30.07 in 10.0 mi North 4.6 mph - N/A   Overcast
8:53 AM 55.9 °F 46.9 °F 72% 30.09 in 10.0 mi North 9.2 mph - N/A   Partly Cloudy
9:53 AM 60.8 °F 44.6 °F 55% 30.07 in 10.0 mi North 11.5 mph 16.1 mph N/A   Clear
10:53 AM 62.1 °F 41.0 °F 46% 30.08 in 10.0 mi NE 8.1 mph - N/A   Scattered Clouds
11:53 AM 63.0 °F 37.9 °F 40% 30.09 in 10.0 mi Variable 6.9 mph 19.6 mph N/A   Mostly Cloudy
12:53 PM 64.0 °F 36.0 °F 35% 30.08 in 10.0 mi Variable 4.6 mph - N/A   Scattered Clouds
1:53 PM 66.0 °F 34.0 °F 30% 30.07 in 10.0 mi North 6.9 mph - N/A   Clear
2:53 PM 64.9 °F 37.0 °F 36% 30.06 in 10.0 mi NW 6.9 mph - N/A   Partly Cloudy
3:53 PM 69.1 °F 34.0 °F 27% 30.05 in 10.0 mi North 10.4 mph - N/A   Mostly Cloudy
4:53 PM 66.0 °F 34.0 °F 30% 30.05 in 10.0 mi North 9.2 mph - N/A   Clear
5:53 PM 66.9 °F 35.1 °F 31% 30.05 in 10.0 mi WNW 9.2 mph - N/A   Clear
6:53 PM 66.9 °F 35.1 °F 31% 30.06 in 10.0 mi NW 11.5 mph - N/A   Clear
7:53 PM 66.0 °F 35.1 °F 32% 30.06 in 10.0 mi North 9.2 mph - N/A   Clear
8:53 PM 59.0 °F 39.9 °F 49% 30.07 in 10.0 mi NW 5.8 mph - N/A   Clear
9:53 PM 55.0 °F 41.0 °F 59% 30.09 in 10.0 mi NW 4.6 mph - N/A   Clear
10:53 PM 53.1 °F 43.0 °F 69% 30.10 in 10.0 mi Calm Calm - N/A   Clear
11:53 PM 52.0 °F 42.1 °F 69% 30.10 in 10.0 mi Calm Calm - N/A   Clear